Time,TemperatureF,DewpointF,PressureIn,WindDirection,WindDirectionDegrees,WindSpeedMPH,WindSpeedGustMPH,Humidity,HourlyPrecipIn,Conditions,Clouds,dailyrainin,SoftwareType,DateUTC
2013-04-13 00:26:00,26.7,25.0,30.04,WNW,300,3.0,6.0,91,0.00,,,0.00,weatherlink.com 1.10,2013-04-13 05:26:00,
2013-04-13 00:41:00,26.7,25.0,30.04,NW,304,1.0,6.0,91,0.00,,,0.00,weatherlink.com 1.10,2013-04-13 05:41:00,
2013-04-13 00:56:00,26.8,25.0,30.04,NW,316,2.0,9.0,91,0.00,,,0.00,weatherlink.com 1.10,2013-04-13 05:56:00,
2013-04-13 01:11:00,26.9,24.0,30.04,WNW,294,3.0,7.0,90,0.00,,,0.00,weatherlink.com 1.10,2013-04-13 06:11:00,
2013-04-13 01:41:00,26.9,24.0,30.04,WNW,290,2.0,7.0,90,0.00,,,0.00,weatherlink.com 1.10,2013-04-13 06:41:00,
2013-04-13 01:56:00,27.0,25.0,30.04,WNW,283,1.0,7.0,90,0.00,,,0.00,weatherlink.com 1.10,2013-04-13 06:56:00,
2013-04-13 02:56:00,27.4,25.0,30.02,NNW,335,2.0,7.0,90,0.00,,,0.00,weatherlink.com 1.10,2013-04-13 07:56:00,
2013-04-13 03:12:00,27.5,25.0,30.02,WNW,291,2.0,6.0,89,0.00,,,0.00,weatherlink.com 1.10,2013-04-13 08:12:00,
2013-04-13 03:42:00,27.1,25.0,30.02,NW,311,1.0,5.0,90,0.00,,,0.00,weatherlink.com 1.10,2013-04-13 08:42:00,
2013-04-13 04:12:00,26.2,24.0,30.02,NW,319,5.0,8.0,90,0.00,,,0.00,weatherlink.com 1.10,2013-04-13 09:12:00,
2013-04-13 04:27:00,25.1,23.0,30.02,NW,316,5.0,7.0,90,0.00,,,0.00,weatherlink.com 1.10,2013-04-13 09:27:00,
2013-04-13 04:42:00,24.7,23.0,30.02,WNW,295,3.0,6.0,91,0.00,,,0.00,weatherlink.com 1.10,2013-04-13 09:42:00,
2013-04-13 04:57:00,24.4,22.0,30.02,NNE,13,0.0,7.0,91,0.00,,,0.00,weatherlink.com 1.10,2013-04-13 09:57:00,
2013-04-13 05:12:00,24.5,22.0,30.02,NNE,12,0.0,3.0,91,0.00,,,0.00,weatherlink.com 1.10,2013-04-13 10:12:00,
2013-04-13 05:27:00,24.8,23.0,30.02,NNW,329,0.0,4.0,91,0.00,,,0.00,weatherlink.com 1.10,2013-04-13 10:27:00,
2013-04-13 05:42:00,24.8,23.0,30.02,NNE,27,0.0,3.0,91,0.00,,,0.00,weatherlink.com 1.10,2013-04-13 10:42:00,
2013-04-13 05:57:00,24.8,23.0,30.03,ENE,70,0.0,2.0,91,0.00,,,0.00,weatherlink.com 1.10,2013-04-13 10:57:00,
2013-04-13 06:12:00,25.0,23.0,30.03,WNW,300,0.0,3.0,91,0.00,,,0.00,weatherlink.com 1.10,2013-04-13 11:12:00,
2013-04-13 06:27:00,25.3,23.0,30.03,NNW,343,1.0,3.0,91,0.00,,,0.00,weatherlink.com 1.10,2013-04-13 11:27:00,
2013-04-13 06:42:00,25.5,23.0,30.04,West,262,1.0,3.0,91,0.00,,,0.00,weatherlink.com 1.10,2013-04-13 11:42:00,
2013-04-13 07:12:00,25.9,23.0,30.04,NW,305,1.0,2.0,89,0.00,,,0.00,weatherlink.com 1.10,2013-04-13 12:12:00,
2013-04-13 07:27:00,26.3,24.0,30.04,WNW,293,0.0,2.0,89,0.00,,,0.00,weatherlink.com 1.10,2013-04-13 12:27:00,
2013-04-13 07:42:00,26.6,24.0,30.05,NW,323,0.0,2.0,89,0.00,,,0.00,weatherlink.com 1.10,2013-04-13 12:42:00,
2013-04-13 07:57:00,26.7,24.0,30.05,ENE,57,0.0,3.0,89,0.00,,,0.00,weatherlink.com 1.10,2013-04-13 12:57:00,
2013-04-13 08:12:00,26.7,24.0,30.04,NE,55,2.0,4.0,88,0.00,,,0.00,weatherlink.com 1.10,2013-04-13 13:12:00,
2013-04-13 08:27:00,26.4,23.0,30.05,NNE,33,1.0,4.0,85,0.00,,,0.00,weatherlink.com 1.10,2013-04-13 13:27:00,
2013-04-13 08:42:00,26.6,23.0,30.05,NE,55,1.0,2.0,85,0.00,,,0.00,weatherlink.com 1.10,2013-04-13 13:42:00,
2013-04-13 08:57:00,27.0,23.0,30.05,ENE,58,0.0,1.0,85,0.00,,,0.00,weatherlink.com 1.10,2013-04-13 13:57:00,
2013-04-13 09:12:00,26.9,23.0,30.05,ENE,72,0.0,1.0,84,0.00,,,0.00,weatherlink.com 1.10,2013-04-13 14:12:00,
2013-04-13 09:27:00,26.7,23.0,30.05,ENE,68,1.0,1.0,85,0.00,,,0.00,weatherlink.com 1.10,2013-04-13 14:27:00,
2013-04-13 09:42:00,26.6,23.0,30.05,ENE,78,1.0,2.0,85,0.00,,,0.00,weatherlink.com 1.10,2013-04-13 14:42:00,
2013-04-13 09:57:00,26.9,23.0,30.05,ENE,68,0.0,2.0,85,0.00,,,0.00,weatherlink.com 1.10,2013-04-13 14:57:00,
2013-04-13 10:12:00,27.5,23.0,30.05,East,80,0.0,1.0,83,0.00,,,0.00,weatherlink.com 1.10,2013-04-13 15:12:00,
2013-04-13 10:27:00,27.9,23.0,30.05,ENE,71,0.0,2.0,82,0.00,,,0.00,weatherlink.com 1.10,2013-04-13 15:27:00,
2013-04-13 10:42:00,28.6,24.0,30.05,ENE,65,0.0,1.0,81,0.00,,,0.00,weatherlink.com 1.10,2013-04-13 15:42:00,
2013-04-13 10:57:00,28.6,24.0,30.05,ENE,60,1.0,2.0,81,0.00,,,0.00,weatherlink.com 1.10,2013-04-13 15:57:00,
2013-04-13 11:12:00,29.0,24.0,30.06,NNE,26,0.0,3.0,81,0.01,,,0.01,weatherlink.com 1.10,2013-04-13 16:12:00,
2013-04-13 11:27:00,29.5,24.0,30.06,NE,55,1.0,2.0,81,0.01,,,0.01,weatherlink.com 1.10,2013-04-13 16:27:00,
2013-04-13 11:42:00,30.3,24.0,30.06,ENE,68,1.0,2.0,78,0.01,,,0.01,weatherlink.com 1.10,2013-04-13 16:42:00,
2013-04-13 11:57:00,30.2,24.0,30.06,ENE,76,1.0,4.0,78,0.01,,,0.01,weatherlink.com 1.10,2013-04-13 16:57:00,
2013-04-13 12:12:00,30.4,23.0,30.06,NE,41,2.0,3.0,75,0.00,,,0.01,weatherlink.com 1.10,2013-04-13 17:12:00,
2013-04-13 12:27:00,31.2,24.0,30.06,NE,54,3.0,3.0,74,0.00,,,0.01,weatherlink.com 1.10,2013-04-13 17:27:00,
2013-04-13 12:42:00,31.2,23.0,30.06,ENE,72,1.0,4.0,73,0.00,,,0.01,weatherlink.com 1.10,2013-04-13 17:42:00,
2013-04-13 12:57:00,31.2,23.0,30.05,ENE,71,2.0,4.0,73,0.00,,,0.01,weatherlink.com 1.10,2013-04-13 17:57:00,
2013-04-13 13:12:00,31.0,23.0,30.05,North,349,2.0,5.0,73,0.00,,,0.01,weatherlink.com 1.10,2013-04-13 18:12:00,
2013-04-13 13:27:00,31.4,23.0,30.05,East,80,1.0,4.0,72,0.00,,,0.01,weatherlink.com 1.10,2013-04-13 18:27:00,
2013-04-13 13:42:00,31.6,23.0,30.05,ENE,77,2.0,4.0,70,0.00,,,0.01,weatherlink.com 1.10,2013-04-13 18:42:00,
2013-04-13 13:57:00,31.6,23.0,30.04,ENE,66,3.0,5.0,71,0.00,,,0.01,weatherlink.com 1.10,2013-04-13 18:57:00,
2013-04-13 14:12:00,31.7,23.0,30.04,ENE,67,3.0,5.0,69,0.00,,,0.01,weatherlink.com 1.10,2013-04-13 19:12:00,
2013-04-13 14:27:00,32.0,22.0,30.05,NE,50,3.0,5.0,68,0.00,,,0.01,weatherlink.com 1.10,2013-04-13 19:27:00,
2013-04-13 14:42:00,31.6,22.0,30.05,East,83,2.0,4.0,67,0.00,,,0.01,weatherlink.com 1.10,2013-04-13 19:42:00,
2013-04-13 14:57:00,31.7,23.0,30.04,East,79,2.0,4.0,69,0.00,,,0.01,weatherlink.com 1.10,2013-04-13 19:57:00,
2013-04-13 15:13:00,31.8,22.0,30.05,ENE,71,3.0,4.0,67,0.00,,,0.01,weatherlink.com 1.10,2013-04-13 20:13:00,
2013-04-13 15:27:00,31.8,21.0,30.04,ENE,77,2.0,4.0,64,0.00,,,0.01,weatherlink.com 1.10,2013-04-13 20:27:00,
2013-04-13 15:42:00,31.8,22.0,30.04,East,79,3.0,4.0,66,0.00,,,0.01,weatherlink.com 1.10,2013-04-13 20:42:00,
2013-04-13 15:57:00,32.0,22.0,30.04,NE,50,5.0,6.0,68,0.00,,,0.01,weatherlink.com 1.10,2013-04-13 20:57:00,
2013-04-13 16:12:00,32.2,23.0,30.03,ENE,60,4.0,5.0,68,0.00,,,0.01,weatherlink.com 1.10,2013-04-13 21:12:00,
2013-04-13 16:27:00,32.1,23.0,30.03,ENE,62,3.0,5.0,69,0.00,,,0.01,weatherlink.com 1.10,2013-04-13 21:27:00,
2013-04-13 16:42:00,32.1,23.0,30.02,ENE,70,4.0,6.0,70,0.00,,,0.01,weatherlink.com 1.10,2013-04-13 21:42:00,
2013-04-13 16:58:00,32.0,23.0,30.03,ENE,60,3.0,5.0,70,0.00,,,0.01,weatherlink.com 1.10,2013-04-13 21:58:00,
2013-04-13 17:13:00,31.9,23.0,30.03,ENE,68,3.0,3.0,70,0.00,,,0.01,weatherlink.com 1.10,2013-04-13 22:13:00,
2013-04-13 17:28:00,32.1,24.0,30.04,ENE,58,3.0,4.0,71,0.00,,,0.01,weatherlink.com 1.10,2013-04-13 22:28:00,
2013-04-13 17:43:00,31.8,24.0,30.03,ENE,63,4.0,5.0,72,0.00,,,0.01,weatherlink.com 1.10,2013-04-13 22:43:00,
2013-04-13 17:58:00,31.6,24.0,30.03,ENE,70,5.0,6.0,72,0.00,,,0.01,weatherlink.com 1.10,2013-04-13 22:58:00,
2013-04-13 18:13:00,31.4,24.0,30.03,ENE,76,2.0,4.0,74,0.00,,,0.01,weatherlink.com 1.10,2013-04-13 23:13:00,
2013-04-13 18:28:00,31.4,24.0,30.02,East,85,3.0,4.0,74,0.00,,,0.01,weatherlink.com 1.10,2013-04-13 23:28:00,
2013-04-13 18:43:00,31.1,24.0,30.02,ENE,60,4.0,6.0,74,0.00,,,0.01,weatherlink.com 1.10,2013-04-13 23:43:00,
2013-04-13 18:58:00,30.5,23.0,30.01,ENE,67,4.0,5.0,75,0.00,,,0.01,weatherlink.com 1.10,2013-04-13 23:58:00,
2013-04-13 19:13:00,30.1,23.0,30.02,ENE,72,3.0,3.0,75,0.00,,,0.01,weatherlink.com 1.10,2013-04-14 00:13:00,
2013-04-13 19:28:00,29.4,23.0,30.02,ENE,60,2.0,4.0,76,0.00,,,0.01,weatherlink.com 1.10,2013-04-14 00:28:00,
2013-04-13 19:43:00,28.2,22.0,30.02,East,79,1.0,2.0,77,0.00,,,0.01,weatherlink.com 1.10,2013-04-14 00:43:00,
2013-04-13 19:58:00,27.6,21.0,30.03,ENE,77,0.0,1.0,77,0.00,,,0.01,weatherlink.com 1.10,2013-04-14 00:58:00,
2013-04-13 20:13:00,27.1,20.0,30.04,ENE,76,0.0,0.0,76,0.00,,,0.01,weatherlink.com 1.10,2013-04-14 01:13:00,
2013-04-13 20:28:00,26.7,21.0,30.05,ENE,76,0.0,0.0,78,0.00,,,0.01,weatherlink.com 1.10,2013-04-14 01:28:00,
2013-04-13 20:43:00,26.4,21.0,30.04,ENE,76,0.0,0.0,80,0.00,,,0.01,weatherlink.com 1.10,2013-04-14 01:43:00,
2013-04-13 20:58:00,26.7,21.0,30.05,ENE,76,0.0,0.0,79,0.00,,,0.01,weatherlink.com 1.10,2013-04-14 01:58:00,
2013-04-13 21:13:00,26.7,21.0,30.05,ENE,76,0.0,0.0,78,0.00,,,0.01,weatherlink.com 1.10,2013-04-14 02:13:00,
2013-04-13 21:28:00,26.0,21.0,30.06,ENE,76,0.0,0.0,80,0.00,,,0.01,weatherlink.com 1.10,2013-04-14 02:28:00,
2013-04-13 21:43:00,25.7,20.0,30.06,ENE,76,0.0,0.0,80,0.00,,,0.01,weatherlink.com 1.10,2013-04-14 02:43:00,
2013-04-13 21:58:00,26.0,21.0,30.06,NE,43,0.0,2.0,80,0.00,,,0.01,weatherlink.com 1.10,2013-04-14 02:58:00,
2013-04-13 22:13:00,26.8,21.0,30.06,NE,41,1.0,2.0,77,0.00,,,0.01,weatherlink.com 1.10,2013-04-14 03:13:00,
2013-04-13 22:28:00,27.0,20.0,30.06,NE,37,2.0,4.0,76,0.00,,,0.01,weatherlink.com 1.10,2013-04-14 03:28:00,
2013-04-13 22:43:00,26.5,20.0,30.06,NE,36,0.0,2.0,77,0.00,,,0.01,weatherlink.com 1.10,2013-04-14 03:43:00,
2013-04-13 22:58:00,25.8,20.0,30.07,NE,37,0.0,2.0,78,0.00,,,0.01,weatherlink.com 1.10,2013-04-14 03:58:00,
2013-04-13 23:13:00,25.2,20.0,30.07,NE,37,0.0,1.0,80,0.00,,,0.01,weatherlink.com 1.10,2013-04-14 04:13:00,
2013-04-13 23:28:00,24.1,19.0,30.07,NE,38,0.0,0.0,82,0.00,,,0.01,weatherlink.com 1.10,2013-04-14 04:28:00,
2013-04-13 23:43:00,23.5,19.0,30.06,NE,51,0.0,1.0,83,0.00,,,0.01,weatherlink.com 1.10,2013-04-14 04:43:00,
2013-04-13 23:58:00,24.0,19.0,30.06,NE,54,0.0,3.0,82,0.00,,,0.01,weatherlink.com 1.10,2013-04-14 04:58:00,